Salem, OR

2:23 PM PDT on September 16, 2019 (GMT -0700)
McNary

Weather History for KSLE - August, 2019

Change the Weather History Date:

Saturday, August 24, 2019

  Actual Average Record
Temperature  
Mean Temperature 66 °F 67 °F  
Max Temperature 82 °F 82 °F 99 °F (1958)
Min Temperature 50 °F 52 °F 39 °F (1929)
Degree Days  
Heating Degree Days 0 1  
Month to date heating degree days 3 21  
Since 1 June heating degree days 83 181  
Since 1 July heating degree days 10 51  
Cooling Degree Days 2 3  
Month to date cooling degree days 109 87  
Year to date cooling degree days 271 233  
Since 1 June cooling degree days 264 224  
Growing Degree Days 16 (Base 50)    
Moisture  
Dew Point 50 °F    
Average Humidity 56    
Maximum Humidity 83    
Minimum Humidity 31    
Precipitation  
Precipitation 0.00 in 0.02 in 1.07 in (1968)
Month to date precipitation 0.15 0.29  
Year to date precipitation 19.55 21.84  
Sea Level Pressure  
Sea Level Pressure 29.97 in    
Wind  
Wind Speed 4 mph ()    
Max Wind Speed 17 mph    
Max Gust Speed 21 mph    
Visibility 10.0 miles    
Events      
T = Trace of Precipitation, MM = Missing Value Source: Averaged Metar Reports

Daily Weather History Graph

Daily Weather History Graph

Search for Another Location

Airport or City:

Astronomy

Aug. 24, 2019 Rise Set
Actual Time 6:24 AM PDT 8:03 PM PDT
Civil Twilight 5:53 AM PDT 8:34 PM PDT
Nautical Twilight 5:15 AM PDT 9:11 PM PDT
Astronomical Twilight 4:35 AM PDT 9:52 PM PDT
Moon 12:15 AM PDT (8/24) 3:32 PM PDT (8/24)
Length of Visible Light 14h 40m
Length of Day
13h 38m
Last Quarter, 38% of the Moon is Illuminated
Aug 24
Last Quarter
Aug 30
New
Sep 5
First Quarter
Sep 13
Full
Sep 21
Last Quarter

Hourly Weather History & Observations

Time (PDT) Temp. Heat Index Dew Point Humidity Pressure Visibility Wind Dir Wind Speed Gust Speed Precip Events Conditions
12:56 AM 62.1 °F - 50.0 °F 65% 29.91 in 10.0 mi NNW 4.6 mph - N/A   Clear
1:56 AM 59.0 °F - 50.0 °F 72% 29.91 in 10.0 mi SSE 3.5 mph - N/A   Clear
2:56 AM 57.9 °F - 50.0 °F 75% 29.91 in 10.0 mi Calm Calm - N/A   Clear
3:56 AM 55.0 °F - 48.9 °F 80% 29.92 in 10.0 mi South 3.5 mph - N/A   Clear
4:56 AM 54.0 °F - 48.9 °F 83% 29.93 in 10.0 mi SSE 4.6 mph - N/A   Clear
5:56 AM 54.0 °F - 48.0 °F 80% 29.95 in 10.0 mi Calm Calm - N/A   Clear
6:56 AM 53.1 °F - 48.0 °F 83% 29.96 in 10.0 mi Calm Calm - N/A   Clear
7:56 AM 61.0 °F - 48.9 °F 64% 29.98 in 10.0 mi NNW 4.6 mph - N/A   Clear
8:56 AM 64.0 °F - 45.0 °F 50% 30.00 in 10.0 mi NNW 4.6 mph - N/A   Clear
9:56 AM 69.1 °F - 46.0 °F 44% 30.00 in 10.0 mi ENE 5.8 mph - N/A   Partly Cloudy
10:56 AM 71.1 °F - 46.0 °F 41% 30.00 in 10.0 mi Calm Calm - N/A   Clear
11:56 AM 75.0 °F - 45.0 °F 34% 30.00 in 10.0 mi Variable 4.6 mph - N/A   Clear
12:56 PM 75.0 °F - 45.0 °F 34% 29.99 in 10.0 mi Variable 3.5 mph - N/A   Clear
1:56 PM 79.0 °F - 46.9 °F 32% 29.99 in 10.0 mi North 8.1 mph - N/A   Clear
2:56 PM 80.1 °F - 50.0 °F 35% 29.97 in 10.0 mi Variable 5.8 mph - N/A   Clear
3:56 PM 81.0 °F - 50.0 °F 34% 29.96 in 10.0 mi Variable 6.9 mph - N/A   Partly Cloudy
4:56 PM 82.0 °F - 48.9 °F 31% 29.95 in 10.0 mi Variable 3.5 mph - N/A   Scattered Clouds
5:56 PM 81.0 °F 80.4 °F 53.1 °F 38% 29.96 in 10.0 mi West 5.8 mph - N/A   Scattered Clouds
6:56 PM 77.0 °F - 57.0 °F 50% 29.96 in 10.0 mi NW 12.7 mph - N/A   Partly Cloudy
7:56 PM 72.0 °F - 55.9 °F 57% 29.97 in 10.0 mi WNW 9.2 mph - N/A   Partly Cloudy
8:56 PM 69.1 °F - 54.0 °F 58% 29.99 in 10.0 mi NW 11.5 mph - N/A   Clear
9:56 PM 66.9 °F - 53.1 °F 61% 30.01 in 10.0 mi NNW 10.4 mph - N/A   Partly Cloudy
10:56 PM 64.0 °F - 52.0 °F 65% 30.02 in 10.0 mi NNW 8.1 mph - N/A   Clear
11:56 PM 64.0 °F - 53.1 °F 67% 30.03 in 10.0 mi NW 8.1 mph - N/A   Partly Cloudy